Year,Month,Day,Hour,Minute,Value (Times are PST for temperature in C)
2010,04,22,00,00,6.60
2010,04,22,00,01,6.60
2010,04,22,00,02,6.60
2010,04,22,00,03,6.60
2010,04,22,00,04,6.60
2010,04,22,00,05,6.60
2010,04,22,00,06,6.60
2010,04,22,00,07,6.70
2010,04,22,00,08,6.70
2010,04,22,00,09,6.70
2010,04,22,00,10,6.70
2010,04,22,00,11,6.70
2010,04,22,00,12,6.80
2010,04,22,00,13,6.80
2010,04,22,00,14,6.70
2010,04,22,00,15,6.80
2010,04,22,00,16,6.80
2010,04,22,00,17,6.80
2010,04,22,00,18,6.80
2010,04,22,00,19,6.80
2010,04,22,00,20,6.80
2010,04,22,00,21,6.80
2010,04,22,00,22,6.80
2010,04,22,00,23,6.80
2010,04,22,00,24,6.80
2010,04,22,00,25,6.80
2010,04,22,00,26,6.80
2010,04,22,00,27,6.80
2010,04,22,00,28,6.70
2010,04,22,00,29,6.70
2010,04,22,00,30,6.80
2010,04,22,00,31,6.80
2010,04,22,00,32,6.80
2010,04,22,00,33,6.80
2010,04,22,00,34,6.80
2010,04,22,00,35,6.80
2010,04,22,00,36,6.80
2010,04,22,00,37,6.80
2010,04,22,00,38,6.80
2010,04,22,00,39,6.80
2010,04,22,00,40,6.80
2010,04,22,00,41,6.80
2010,04,22,00,42,6.80
2010,04,22,00,43,6.80
2010,04,22,00,44,6.80
2010,04,22,00,45,6.80
2010,04,22,00,46,6.80
2010,04,22,00,47,6.80
2010,04,22,00,48,6.80
2010,04,22,00,49,6.80
2010,04,22,00,50,6.80
2010,04,22,00,51,6.80
2010,04,22,00,52,6.80
2010,04,22,00,53,6.80
2010,04,22,00,54,6.80
2010,04,22,00,55,6.80
2010,04,22,00,56,6.80
2010,04,22,00,57,6.80
2010,04,22,00,58,6.80
2010,04,22,00,59,6.80
2010,04,22,01,00,6.80
2010,04,22,01,01,6.70
2010,04,22,01,02,6.70
2010,04,22,01,03,6.70
2010,04,22,01,04,6.70
2010,04,22,01,05,6.70
2010,04,22,01,06,6.70
2010,04,22,01,07,6.70
2010,04,22,01,08,6.70
2010,04,22,01,09,6.70
2010,04,22,01,10,6.60
2010,04,22,01,11,6.60
2010,04,22,01,12,6.50
2010,04,22,01,13,6.40
2010,04,22,01,14,6.40
2010,04,22,01,15,6.40
2010,04,22,01,16,6.30
2010,04,22,01,17,6.30
2010,04,22,01,18,6.20
2010,04,22,01,19,6.20
2010,04,22,01,20,6.20
2010,04,22,01,21,6.20
2010,04,22,01,22,6.10
2010,04,22,01,23,6.10
2010,04,22,01,24,6.20
2010,04,22,01,25,6.20
2010,04,22,01,26,6.20
2010,04,22,01,27,6.20
2010,04,22,01,28,6.20
2010,04,22,01,29,6.20
2010,04,22,01,30,6.20
2010,04,22,01,31,6.20
2010,04,22,01,32,6.20
2010,04,22,01,33,6.20
2010,04,22,01,34,6.20
2010,04,22,01,35,6.20
2010,04,22,01,36,6.20
2010,04,22,01,37,6.20
2010,04,22,01,38,6.20
2010,04,22,01,39,6.20
2010,04,22,01,40,6.20
2010,04,22,01,41,6.20
2010,04,22,01,42,6.20
2010,04,22,01,43,6.20
2010,04,22,01,44,6.20
2010,04,22,01,45,6.20
2010,04,22,01,46,6.20
2010,04,22,01,47,6.20
2010,04,22,01,48,6.20
2010,04,22,01,49,6.20
2010,04,22,01,50,6.20
2010,04,22,01,51,6.20
2010,04,22,01,52,6.20
2010,04,22,01,53,6.30
2010,04,22,01,54,6.30
2010,04,22,01,55,6.30
2010,04,22,01,56,6.30
2010,04,22,01,57,6.30
2010,04,22,01,58,6.30
2010,04,22,01,59,6.30
2010,04,22,02,00,6.30
2010,04,22,02,01,6.30
2010,04,22,02,02,6.20
2010,04,22,02,03,6.20
2010,04,22,02,04,6.20
2010,04,22,02,05,6.20
2010,04,22,02,06,6.20
2010,04,22,02,07,6.20
2010,04,22,02,08,6.20
2010,04,22,02,09,6.30
2010,04,22,02,10,6.30
2010,04,22,02,11,6.30
2010,04,22,02,12,6.30
2010,04,22,02,13,6.30
2010,04,22,02,14,6.30
2010,04,22,02,15,6.30
2010,04,22,02,16,6.30
2010,04,22,02,17,6.30
2010,04,22,02,18,6.30
2010,04,22,02,19,6.30
2010,04,22,02,20,6.30
2010,04,22,02,21,6.30
2010,04,22,02,22,6.30
2010,04,22,02,23,6.30
2010,04,22,02,24,6.30
2010,04,22,02,25,6.30
2010,04,22,02,26,6.30
2010,04,22,02,27,6.30
2010,04,22,02,28,6.30
2010,04,22,02,29,6.30
2010,04,22,02,30,6.30
2010,04,22,02,31,6.30
2010,04,22,02,32,6.30
2010,04,22,02,33,6.30
2010,04,22,02,34,6.30
2010,04,22,02,35,6.30
2010,04,22,02,36,6.30
2010,04,22,02,37,6.30
2010,04,22,02,38,6.30
2010,04,22,02,39,6.30
2010,04,22,02,40,6.30
2010,04,22,02,41,6.30
2010,04,22,02,42,6.30
2010,04,22,02,43,6.30
2010,04,22,02,44,6.30
2010,04,22,02,45,6.30
2010,04,22,02,46,6.30
2010,04,22,02,47,6.30
2010,04,22,02,48,6.30
2010,04,22,02,49,6.40
2010,04,22,02,50,6.40
2010,04,22,02,51,6.30
2010,04,22,02,52,6.40
2010,04,22,02,53,6.40
2010,04,22,02,54,6.40
2010,04,22,02,55,6.40
2010,04,22,02,56,6.40
2010,04,22,02,57,6.40
2010,04,22,02,58,6.40
2010,04,22,02,59,6.40
2010,04,22,03,00,6.40
2010,04,22,03,01,6.40
2010,04,22,03,02,6.40
2010,04,22,03,03,6.40
2010,04,22,03,04,6.40
2010,04,22,03,05,6.40
2010,04,22,03,06,6.40
2010,04,22,03,07,6.40
2010,04,22,03,08,6.40
2010,04,22,03,09,6.30
2010,04,22,03,10,6.30
2010,04,22,03,11,6.30
2010,04,22,03,12,6.30
2010,04,22,03,13,6.40
2010,04,22,03,14,6.40
2010,04,22,03,15,6.50
2010,04,22,03,16,6.50
2010,04,22,03,17,6.50
2010,04,22,03,18,6.60
2010,04,22,03,19,6.60
2010,04,22,03,20,6.60
2010,04,22,03,21,6.60
2010,04,22,03,22,6.60
2010,04,22,03,23,6.50
2010,04,22,03,24,6.50
2010,04,22,03,25,6.50
2010,04,22,03,26,6.40
2010,04,22,03,27,6.40
2010,04,22,03,28,6.30
2010,04,22,03,29,6.30
2010,04,22,03,30,6.30
2010,04,22,03,31,6.20
2010,04,22,03,32,6.20
2010,04,22,03,33,6.20
2010,04,22,03,34,6.10
2010,04,22,03,35,6.10
2010,04,22,03,36,6.00
2010,04,22,03,37,6.00
2010,04,22,03,38,5.90
2010,04,22,03,39,5.90
2010,04,22,03,40,5.80
2010,04,22,03,41,5.70
2010,04,22,03,42,5.70
2010,04,22,03,43,5.60
2010,04,22,03,44,5.60
2010,04,22,03,45,5.50
2010,04,22,03,46,5.40
2010,04,22,03,47,5.40
2010,04,22,03,48,5.30
2010,04,22,03,49,5.30
2010,04,22,03,50,5.20
2010,04,22,03,51,5.20
2010,04,22,03,52,5.10
2010,04,22,03,53,5.10
2010,04,22,03,54,5.10
2010,04,22,03,55,5.00
2010,04,22,03,56,4.90
2010,04,22,03,57,4.90
2010,04,22,03,58,4.80
2010,04,22,03,59,4.80
2010,04,22,04,00,4.70
2010,04,22,04,01,4.70
2010,04,22,04,02,4.70
2010,04,22,04,03,4.60
2010,04,22,04,04,4.60
2010,04,22,04,05,4.60
2010,04,22,04,06,4.60
2010,04,22,04,07,4.60
2010,04,22,04,08,4.60
2010,04,22,04,09,4.60
2010,04,22,04,10,4.50
2010,04,22,04,11,4.50
2010,04,22,04,12,4.50
2010,04,22,04,13,4.40
2010,04,22,04,14,4.40
2010,04,22,04,15,4.30
2010,04,22,04,16,4.30
2010,04,22,04,17,4.30
2010,04,22,04,18,4.30
2010,04,22,04,19,4.20
2010,04,22,04,20,4.20
2010,04,22,04,21,4.20
2010,04,22,04,22,4.10
2010,04,22,04,23,4.10
2010,04,22,04,24,4.10
2010,04,22,04,25,4.00
2010,04,22,04,26,4.00
2010,04,22,04,27,3.90
2010,04,22,04,28,3.90
2010,04,22,04,29,3.80
2010,04,22,04,30,3.80
2010,04,22,04,31,3.80
2010,04,22,04,32,3.70
2010,04,22,04,33,3.70
2010,04,22,04,34,3.70
2010,04,22,04,35,3.60
2010,04,22,04,36,3.60
2010,04,22,04,37,3.60
2010,04,22,04,38,3.50
2010,04,22,04,39,3.50
2010,04,22,04,40,3.40
2010,04,22,04,41,3.40
2010,04,22,04,42,3.40
2010,04,22,04,43,3.30
2010,04,22,04,44,3.30
2010,04,22,04,45,3.30
2010,04,22,04,46,3.20
2010,04,22,04,47,3.20
2010,04,22,04,48,3.20
2010,04,22,04,49,3.20
2010,04,22,04,50,3.10
2010,04,22,04,51,3.10
2010,04,22,04,52,3.10
2010,04,22,04,53,3.10
2010,04,22,04,54,3.00
2010,04,22,04,55,3.00
2010,04,22,04,56,3.00
2010,04,22,04,57,2.90
2010,04,22,04,58,2.90
2010,04,22,04,59,2.90
2010,04,22,05,00,2.90
2010,04,22,05,01,2.90
2010,04,22,05,02,2.90
2010,04,22,05,03,2.80
2010,04,22,05,04,2.80
2010,04,22,05,05,2.80
2010,04,22,05,06,2.80
2010,04,22,05,07,2.80
2010,04,22,05,08,2.80
2010,04,22,05,09,2.80
2010,04,22,05,10,2.90
2010,04,22,05,11,2.90
2010,04,22,05,12,2.90
2010,04,22,05,13,2.90
2010,04,22,05,14,2.90
2010,04,22,05,15,2.90
2010,04,22,05,16,3.00
2010,04,22,05,17,3.00
2010,04,22,05,18,3.00
2010,04,22,05,19,3.00
2010,04,22,05,20,3.00
2010,04,22,05,21,3.10
2010,04,22,05,22,3.10
2010,04,22,05,23,3.10
2010,04,22,05,24,3.10
2010,04,22,05,25,3.10
2010,04,22,05,26,3.10
2010,04,22,05,27,3.20
2010,04,22,05,28,3.20
2010,04,22,05,29,3.20
2010,04,22,05,30,3.20
2010,04,22,05,31,3.30
2010,04,22,05,32,3.30
2010,04,22,05,33,3.30
2010,04,22,05,34,3.40
2010,04,22,05,35,3.40
2010,04,22,05,36,3.50
2010,04,22,05,37,3.60
2010,04,22,05,38,3.60
2010,04,22,05,39,3.60
2010,04,22,05,40,3.70
2010,04,22,05,41,3.70
2010,04,22,05,42,3.70
2010,04,22,05,43,3.80
2010,04,22,05,44,3.80
2010,04,22,05,45,3.90
2010,04,22,05,46,3.90
2010,04,22,05,47,4.00
2010,04,22,05,48,4.00
2010,04,22,05,49,4.10
2010,04,22,05,50,4.10
2010,04,22,05,51,4.10
2010,04,22,05,52,4.10
2010,04,22,05,53,4.10
2010,04,22,05,54,4.10
2010,04,22,05,55,4.10
2010,04,22,05,56,4.10
2010,04,22,05,57,4.10
2010,04,22,05,58,4.10
2010,04,22,05,59,4.10
2010,04,22,06,00,4.10
2010,04,22,06,01,4.10
2010,04,22,06,02,4.10
2010,04,22,06,03,4.10
2010,04,22,06,04,4.10
2010,04,22,06,05,4.10
2010,04,22,06,06,4.20
2010,04,22,06,07,4.20
2010,04,22,06,08,4.20
2010,04,22,06,09,4.10
2010,04,22,06,10,4.10
2010,04,22,06,11,4.10
2010,04,22,06,12,4.10
2010,04,22,06,13,4.10
2010,04,22,06,14,4.10
2010,04,22,06,15,4.10
2010,04,22,06,16,4.00
2010,04,22,06,17,4.00
2010,04,22,06,18,4.00
2010,04,22,06,19,3.90
2010,04,22,06,20,3.90
2010,04,22,06,21,3.80
2010,04,22,06,22,3.80
2010,04,22,06,23,3.70
2010,04,22,06,24,3.70
2010,04,22,06,25,3.60
2010,04,22,06,26,3.60
2010,04,22,06,27,3.50
2010,04,22,06,28,3.50
2010,04,22,06,29,3.40
2010,04,22,06,30,3.40
2010,04,22,06,31,3.30
2010,04,22,06,32,3.30
2010,04,22,06,33,3.20
2010,04,22,06,34,3.20
2010,04,22,06,35,3.10
2010,04,22,06,36,3.10
2010,04,22,06,37,3.10
2010,04,22,06,38,3.00
2010,04,22,06,39,2.90
2010,04,22,06,40,2.90
2010,04,22,06,41,2.90
2010,04,22,06,42,2.80
2010,04,22,06,43,2.80
2010,04,22,06,44,2.80
2010,04,22,06,45,2.80
2010,04,22,06,46,2.70
2010,04,22,06,47,2.70
2010,04,22,06,48,2.70
2010,04,22,06,49,2.70
2010,04,22,06,50,2.70
2010,04,22,06,51,2.70
2010,04,22,06,52,2.70
2010,04,22,06,53,2.70
2010,04,22,06,54,2.70
2010,04,22,06,55,2.70
2010,04,22,06,56,2.70
2010,04,22,06,57,2.70
2010,04,22,06,58,2.80
2010,04,22,06,59,2.80
2010,04,22,07,00,2.80
2010,04,22,07,01,2.80
2010,04,22,07,02,2.80
2010,04,22,07,03,2.80
2010,04,22,07,04,2.80
2010,04,22,07,05,2.80
2010,04,22,07,06,2.80
2010,04,22,07,07,2.80
2010,04,22,07,08,2.70
2010,04,22,07,09,2.70
2010,04,22,07,10,2.70
2010,04,22,07,11,2.70
2010,04,22,07,12,2.70
2010,04,22,07,13,2.70
2010,04,22,07,14,2.70
2010,04,22,07,15,2.70
2010,04,22,07,16,2.70
2010,04,22,07,17,2.80
2010,04,22,07,18,2.80
2010,04,22,07,19,2.90
2010,04,22,07,20,2.90
2010,04,22,07,21,2.90
2010,04,22,07,22,2.90
2010,04,22,07,23,2.90
2010,04,22,07,24,3.00
2010,04,22,07,25,3.00
2010,04,22,07,26,3.00
2010,04,22,07,27,3.00
2010,04,22,07,28,3.00
2010,04,22,07,29,3.10
2010,04,22,07,30,3.10
2010,04,22,07,31,3.10
2010,04,22,07,32,3.10
2010,04,22,07,33,3.10
2010,04,22,07,34,3.10
2010,04,22,07,35,3.10
2010,04,22,07,36,3.10
2010,04,22,07,37,3.10
2010,04,22,07,38,3.10
2010,04,22,07,39,3.10
2010,04,22,07,40,3.10
2010,04,22,07,41,3.10
2010,04,22,07,42,3.20
2010,04,22,07,43,3.20
2010,04,22,07,44,3.20
2010,04,22,07,45,3.20
2010,04,22,07,46,3.30
2010,04,22,07,47,3.30
2010,04,22,07,48,3.30
2010,04,22,07,49,3.40
2010,04,22,07,50,3.40
2010,04,22,07,51,3.40
2010,04,22,07,52,3.50
2010,04,22,07,53,3.50
2010,04,22,07,54,3.60
2010,04,22,07,55,3.70
2010,04,22,07,56,3.70
2010,04,22,07,57,3.80
2010,04,22,07,58,3.90
2010,04,22,07,59,4.00
2010,04,22,08,00,4.20
2010,04,22,08,01,4.30
2010,04,22,08,02,4.40
2010,04,22,08,03,4.50
2010,04,22,08,04,4.70
2010,04,22,08,05,4.80
2010,04,22,08,06,5.00
2010,04,22,08,07,5.20
2010,04,22,08,08,5.30
2010,04,22,08,09,5.50
2010,04,22,08,10,5.70
2010,04,22,08,11,5.80
2010,04,22,08,12,5.90
2010,04,22,08,13,6.10
2010,04,22,08,14,6.20
2010,04,22,08,15,6.30
2010,04,22,08,16,6.40
2010,04,22,08,17,6.50
2010,04,22,08,18,6.70
2010,04,22,08,19,6.80
2010,04,22,08,20,6.90
2010,04,22,08,21,7.00
2010,04,22,08,22,7.10
2010,04,22,08,23,7.20
2010,04,22,08,24,7.30
2010,04,22,08,25,7.40
2010,04,22,08,26,7.50
2010,04,22,08,27,7.60
2010,04,22,08,28,7.70
2010,04,22,08,29,7.80
2010,04,22,08,30,8.00
2010,04,22,08,31,8.10
2010,04,22,08,32,8.20
2010,04,22,08,33,8.40
2010,04,22,08,34,8.50
2010,04,22,08,35,8.60
2010,04,22,08,36,8.70
2010,04,22,08,37,8.80
2010,04,22,08,38,8.80
2010,04,22,08,39,8.90
2010,04,22,08,40,9.00
2010,04,22,08,41,9.10
2010,04,22,08,42,9.10
2010,04,22,08,43,9.20
2010,04,22,08,44,9.20
2010,04,22,08,45,9.30
2010,04,22,08,46,9.30
2010,04,22,08,47,9.30
2010,04,22,08,48,9.30
2010,04,22,08,49,9.30
2010,04,22,08,50,9.40
2010,04,22,08,51,9.40
2010,04,22,08,52,9.50
2010,04,22,08,53,9.50
2010,04,22,08,54,9.60
2010,04,22,08,55,9.60
2010,04,22,08,56,9.60
2010,04,22,08,57,9.60
2010,04,22,08,58,9.60
2010,04,22,08,59,9.60
2010,04,22,09,00,9.50
2010,04,22,09,01,9.40
2010,04,22,09,02,9.40
2010,04,22,09,03,9.30
2010,04,22,09,04,9.20
2010,04,22,09,05,9.20
2010,04,22,09,06,9.10
2010,04,22,09,07,9.10
2010,04,22,09,08,9.00
2010,04,22,09,09,8.90
2010,04,22,09,10,8.90
2010,04,22,09,11,8.90
2010,04,22,09,12,8.80
2010,04,22,09,13,8.80
2010,04,22,09,14,8.80
2010,04,22,09,15,8.70
2010,04,22,09,16,8.70
2010,04,22,09,17,8.70
2010,04,22,09,18,8.60
2010,04,22,09,19,8.60
2010,04,22,09,20,8.50
2010,04,22,09,21,8.50
2010,04,22,09,22,8.50
2010,04,22,09,23,8.40
2010,04,22,09,24,8.40
2010,04,22,09,25,8.40
2010,04,22,09,26,8.40
2010,04,22,09,27,8.40
2010,04,22,09,28,8.40
2010,04,22,09,29,8.40
2010,04,22,09,30,8.30
2010,04,22,09,31,8.30
2010,04,22,09,32,8.30
2010,04,22,09,33,8.30
2010,04,22,09,34,8.30
2010,04,22,09,35,8.30
2010,04,22,09,36,8.30
2010,04,22,09,37,8.30
2010,04,22,09,38,8.30
2010,04,22,09,39,8.30
2010,04,22,09,40,8.30
2010,04,22,09,41,8.40
2010,04,22,09,42,8.40
2010,04,22,09,43,8.40
2010,04,22,09,44,8.50
2010,04,22,09,45,8.60
2010,04,22,09,46,8.60
2010,04,22,09,47,8.70
2010,04,22,09,48,8.70
2010,04,22,09,49,8.80
2010,04,22,09,50,8.90
2010,04,22,09,51,9.00
2010,04,22,09,52,9.00
2010,04,22,09,53,9.20
2010,04,22,09,54,9.30
2010,04,22,09,55,9.50
2010,04,22,09,56,9.60
2010,04,22,09,57,9.80
2010,04,22,09,58,9.90
2010,04,22,09,59,10.00
2010,04,22,10,00,10.00
2010,04,22,10,01,10.00
2010,04,22,10,02,9.90
2010,04,22,10,03,9.90
2010,04,22,10,04,9.90
2010,04,22,10,05,10.00
2010,04,22,10,06,10.10
2010,04,22,10,07,10.10
2010,04,22,10,08,10.10
2010,04,22,10,09,10.10
2010,04,22,10,10,10.10
2010,04,22,10,11,10.10
2010,04,22,10,12,10.10
2010,04,22,10,13,10.10
2010,04,22,10,14,10.10
2010,04,22,10,15,10.10
2010,04,22,10,16,10.10
2010,04,22,10,17,10.20
2010,04,22,10,18,10.20
2010,04,22,10,19,10.20
2010,04,22,10,20,10.20
2010,04,22,10,21,10.20
2010,04,22,10,22,10.20
2010,04,22,10,23,10.30
2010,04,22,10,24,10.30
2010,04,22,10,25,10.40
2010,04,22,10,26,10.40
2010,04,22,10,27,10.40
2010,04,22,10,28,10.40
2010,04,22,10,29,10.40
2010,04,22,10,30,10.30
2010,04,22,10,31,10.30
2010,04,22,10,32,10.30
2010,04,22,10,33,10.20
2010,04,22,10,34,10.20
2010,04,22,10,35,10.20
2010,04,22,10,36,10.20
2010,04,22,10,37,10.20
2010,04,22,10,38,10.20
2010,04,22,10,39,10.20
2010,04,22,10,40,10.20
2010,04,22,10,41,10.20
2010,04,22,10,42,10.20
2010,04,22,10,43,10.20
2010,04,22,10,44,10.20
2010,04,22,10,45,10.20
2010,04,22,10,46,10.20
2010,04,22,10,47,10.30
2010,04,22,10,48,10.30
2010,04,22,10,49,10.30
2010,04,22,10,50,10.40
2010,04,22,10,51,10.40
2010,04,22,10,52,10.40
2010,04,22,10,53,10.30
2010,04,22,10,54,10.30
2010,04,22,10,55,10.20
2010,04,22,10,56,10.20
2010,04,22,10,57,10.20
2010,04,22,10,58,10.20
2010,04,22,10,59,10.10
2010,04,22,11,00,10.10
2010,04,22,11,01,10.10
2010,04,22,11,02,10.00
2010,04,22,11,03,10.00
2010,04,22,11,04,9.90
2010,04,22,11,05,9.90
2010,04,22,11,06,9.90
2010,04,22,11,07,9.90
2010,04,22,11,08,9.90
2010,04,22,11,09,9.90
2010,04,22,11,10,9.90
2010,04,22,11,11,9.90
2010,04,22,11,12,9.90
2010,04,22,11,13,9.90
2010,04,22,11,14,9.90
2010,04,22,11,15,9.90
2010,04,22,11,16,10.00
2010,04,22,11,17,10.00
2010,04,22,11,18,10.10
2010,04,22,11,19,10.10
2010,04,22,11,20,10.20
2010,04,22,11,21,10.20
2010,04,22,11,22,10.20
2010,04,22,11,23,10.20
2010,04,22,11,24,10.20
2010,04,22,11,25,10.20
2010,04,22,11,26,10.20
2010,04,22,11,27,10.20
2010,04,22,11,28,10.30
2010,04,22,11,29,10.30
2010,04,22,11,30,10.40
2010,04,22,11,31,10.50
2010,04,22,11,32,10.50
2010,04,22,11,33,10.60
2010,04,22,11,34,10.50
2010,04,22,11,35,10.50
2010,04,22,11,36,10.50
2010,04,22,11,37,10.40
2010,04,22,11,38,10.40
2010,04,22,11,39,10.40
2010,04,22,11,40,10.40
2010,04,22,11,41,10.40
2010,04,22,11,42,10.40
2010,04,22,11,43,10.40
2010,04,22,11,44,10.40
2010,04,22,11,45,10.50
2010,04,22,11,46,10.50
2010,04,22,11,47,10.60
2010,04,22,11,48,10.60
2010,04,22,11,49,10.70
2010,04,22,11,50,10.80
2010,04,22,11,51,10.90
2010,04,22,11,52,11.00
2010,04,22,11,53,11.10
2010,04,22,11,54,11.20
2010,04,22,11,55,11.30
2010,04,22,11,56,11.40
2010,04,22,11,57,11.60
2010,04,22,11,58,11.60
2010,04,22,11,59,11.70
2010,04,22,12,00,11.70
2010,04,22,12,01,11.80
2010,04,22,12,02,11.90
2010,04,22,12,03,12.00
2010,04,22,12,04,12.00
2010,04,22,12,05,12.00
2010,04,22,12,06,12.10
2010,04,22,12,07,12.10
2010,04,22,12,08,12.20
2010,04,22,12,09,12.20
2010,04,22,12,10,12.10
2010,04,22,12,11,12.10
2010,04,22,12,12,12.10
2010,04,22,12,13,12.10
2010,04,22,12,14,12.20
2010,04,22,12,15,12.30
2010,04,22,12,16,12.20
2010,04,22,12,17,12.20
2010,04,22,12,18,12.20
2010,04,22,12,19,12.10
2010,04,22,12,20,12.00
2010,04,22,12,21,11.90
2010,04,22,12,22,11.80
2010,04,22,12,23,11.80
2010,04,22,12,24,11.90
2010,04,22,12,25,11.90
2010,04,22,12,26,12.00
2010,04,22,12,27,12.10
2010,04,22,12,28,12.10
2010,04,22,12,29,12.10
2010,04,22,12,30,12.10
2010,04,22,12,31,12.10
2010,04,22,12,32,12.10
2010,04,22,12,33,12.10
2010,04,22,12,34,12.00
2010,04,22,12,35,12.00
2010,04,22,12,36,12.00
2010,04,22,12,37,12.00
2010,04,22,12,38,12.00
2010,04,22,12,39,12.10
2010,04,22,12,40,12.20
2010,04,22,12,41,12.20
2010,04,22,12,42,12.20
2010,04,22,12,43,12.20
2010,04,22,12,44,12.30
2010,04,22,12,45,12.30
2010,04,22,12,46,12.20
2010,04,22,12,47,12.00
2010,04,22,12,48,11.90
2010,04,22,12,49,11.80
2010,04,22,12,50,11.60
2010,04,22,12,51,11.60
2010,04,22,12,52,11.50
2010,04,22,12,53,11.40
2010,04,22,12,54,11.30
2010,04,22,12,55,11.20
2010,04,22,12,56,11.20
2010,04,22,12,57,11.10
2010,04,22,12,58,11.10
2010,04,22,12,59,11.10
2010,04,22,13,00,11.10
2010,04,22,13,01,11.00
2010,04,22,13,02,11.00
2010,04,22,13,03,10.90
2010,04,22,13,04,10.90
2010,04,22,13,05,10.80
2010,04,22,13,06,10.80
2010,04,22,13,07,10.90
2010,04,22,13,08,10.90
2010,04,22,13,09,11.00
2010,04,22,13,10,11.10
2010,04,22,13,11,11.20
2010,04,22,13,12,11.30
2010,04,22,13,13,11.30
2010,04,22,13,14,11.30
2010,04,22,13,15,11.30
2010,04,22,13,16,11.40
2010,04,22,13,17,11.40
2010,04,22,13,18,11.40
2010,04,22,13,19,11.50
2010,04,22,13,20,11.50
2010,04,22,13,21,11.60
2010,04,22,13,22,11.70
2010,04,22,13,23,11.80
2010,04,22,13,24,11.90
2010,04,22,13,25,12.00
2010,04,22,13,26,12.00
2010,04,22,13,27,12.10
2010,04,22,13,28,12.10
2010,04,22,13,29,12.00
2010,04,22,13,30,11.80
2010,04,22,13,31,11.70
2010,04,22,13,32,11.60
2010,04,22,13,33,11.60
2010,04,22,13,34,11.60
2010,04,22,13,35,11.50
2010,04,22,13,36,11.40
2010,04,22,13,37,11.40
2010,04,22,13,38,11.40
2010,04,22,13,39,11.40
2010,04,22,13,40,11.40
2010,04,22,13,41,11.40
2010,04,22,13,42,11.40
2010,04,22,13,43,11.30
2010,04,22,13,44,11.20
2010,04,22,13,45,11.20
2010,04,22,13,46,11.20
2010,04,22,13,47,11.20
2010,04,22,13,48,11.20
2010,04,22,13,49,11.20
2010,04,22,13,50,11.20
2010,04,22,13,51,11.30
2010,04,22,13,52,11.40
2010,04,22,13,53,11.50
2010,04,22,13,54,11.50
2010,04,22,13,55,11.60
2010,04,22,13,56,11.70
2010,04,22,13,57,11.80
2010,04,22,13,58,11.80
2010,04,22,13,59,12.00
2010,04,22,14,00,12.10
2010,04,22,14,01,12.20
2010,04,22,14,02,12.30
2010,04,22,14,03,12.40
2010,04,22,14,04,12.50
2010,04,22,14,05,12.60
2010,04,22,14,06,12.80
2010,04,22,14,07,12.90
2010,04,22,14,08,13.00
2010,04,22,14,09,13.10
2010,04,22,14,10,13.10
2010,04,22,14,11,13.20
2010,04,22,14,12,13.20
2010,04,22,14,13,13.30
2010,04,22,14,14,13.30
2010,04,22,14,15,13.30
2010,04,22,14,16,13.30
2010,04,22,14,17,13.30
2010,04,22,14,18,13.30
2010,04,22,14,19,13.40
2010,04,22,14,20,13.40
2010,04,22,14,21,13.50
2010,04,22,14,22,13.50
2010,04,22,14,23,13.40
2010,04,22,14,24,13.40
2010,04,22,14,25,13.50
2010,04,22,14,26,13.60
2010,04,22,14,27,13.60
2010,04,22,14,28,13.70
2010,04,22,14,29,13.70
2010,04,22,14,30,13.60
2010,04,22,14,31,13.50
2010,04,22,14,32,13.50
2010,04,22,14,33,13.50
2010,04,22,14,34,13.60
2010,04,22,14,35,13.60
2010,04,22,14,36,13.60
2010,04,22,14,37,13.50
2010,04,22,14,38,13.50
2010,04,22,14,39,13.50
2010,04,22,14,40,13.50
2010,04,22,14,41,13.40
2010,04,22,14,42,13.40
2010,04,22,14,43,13.40
2010,04,22,14,44,13.40
2010,04,22,14,45,13.40
2010,04,22,14,46,13.30
2010,04,22,14,47,13.30
2010,04,22,14,48,13.20
2010,04,22,14,49,13.20
2010,04,22,14,50,13.20
2010,04,22,14,51,13.10
2010,04,22,14,52,13.10
2010,04,22,14,53,13.10
2010,04,22,14,54,13.00
2010,04,22,14,55,13.00
2010,04,22,14,56,13.00
2010,04,22,14,57,12.90
2010,04,22,14,58,12.90
2010,04,22,14,59,12.90
2010,04,22,15,00,12.90
2010,04,22,15,01,12.90
2010,04,22,15,02,12.90
2010,04,22,15,03,13.00
2010,04,22,15,04,13.10
2010,04,22,15,05,13.20
2010,04,22,15,06,13.30
2010,04,22,15,07,13.40
2010,04,22,15,08,13.40
2010,04,22,15,09,13.40
2010,04,22,15,10,13.30
2010,04,22,15,11,13.30
2010,04,22,15,12,13.20
2010,04,22,15,13,13.20
2010,04,22,15,14,13.20
2010,04,22,15,15,13.10
2010,04,22,15,16,13.10
2010,04,22,15,17,13.10
2010,04,22,15,18,13.20
2010,04,22,15,19,13.10
2010,04,22,15,20,13.00
2010,04,22,15,21,13.00
2010,04,22,15,22,13.00
2010,04,22,15,23,13.00
2010,04,22,15,24,12.90
2010,04,22,15,25,12.90
2010,04,22,15,26,12.90
2010,04,22,15,27,12.80
2010,04,22,15,28,12.80
2010,04,22,15,29,12.70
2010,04,22,15,30,12.60
2010,04,22,15,31,12.60
2010,04,22,15,32,12.60
2010,04,22,15,33,12.70
2010,04,22,15,34,12.80
2010,04,22,15,35,12.90
2010,04,22,15,36,12.90
2010,04,22,15,37,13.00
2010,04,22,15,38,13.10
2010,04,22,15,39,13.20
2010,04,22,15,40,13.20
2010,04,22,15,41,13.30
2010,04,22,15,42,13.30
2010,04,22,15,43,13.30
2010,04,22,15,44,13.30
2010,04,22,15,45,13.30
2010,04,22,15,46,13.30
2010,04,22,15,47,13.40
2010,04,22,15,48,13.30
2010,04,22,15,49,13.30
2010,04,22,15,50,13.30
2010,04,22,15,51,13.30
2010,04,22,15,52,13.40
2010,04,22,15,53,13.40
2010,04,22,15,54,13.50
2010,04,22,15,55,13.50
2010,04,22,15,56,13.40
2010,04,22,15,57,13.20
2010,04,22,15,58,13.20
2010,04,22,15,59,13.20
2010,04,22,16,00,13.20
2010,04,22,16,01,13.20
2010,04,22,16,02,13.20
2010,04,22,16,03,13.20
2010,04,22,16,04,13.20
2010,04,22,16,05,13.10
2010,04,22,16,06,13.00
2010,04,22,16,07,13.00
2010,04,22,16,08,13.10
2010,04,22,16,09,13.10
2010,04,22,16,10,13.10
2010,04,22,16,11,13.10
2010,04,22,16,12,13.10
2010,04,22,16,13,13.20
2010,04,22,16,14,13.20
2010,04,22,16,15,13.10
2010,04,22,16,16,13.10
2010,04,22,16,17,13.00
2010,04,22,16,18,13.00
2010,04,22,16,19,13.00
2010,04,22,16,20,12.90
2010,04,22,16,21,12.90
2010,04,22,16,22,12.80
2010,04,22,16,23,12.80
2010,04,22,16,24,12.80
2010,04,22,16,25,12.90
2010,04,22,16,26,12.80
2010,04,22,16,27,12.70
2010,04,22,16,28,12.70
2010,04,22,16,29,12.60
2010,04,22,16,30,12.50
2010,04,22,16,31,12.50
2010,04,22,16,32,12.40
2010,04,22,16,33,12.30
2010,04,22,16,34,12.30
2010,04,22,16,35,12.20
2010,04,22,16,36,12.20
2010,04,22,16,37,12.20
2010,04,22,16,38,12.20
2010,04,22,16,39,12.20
2010,04,22,16,40,12.10
2010,04,22,16,41,12.10
2010,04,22,16,42,12.10
2010,04,22,16,43,12.10
2010,04,22,16,44,12.10
2010,04,22,16,45,12.00
2010,04,22,16,46,12.00
2010,04,22,16,47,11.90
2010,04,22,16,48,11.90
2010,04,22,16,49,11.90
2010,04,22,16,50,11.90
2010,04,22,16,51,11.80
2010,04,22,16,52,11.80
2010,04,22,16,53,11.70
2010,04,22,16,54,11.70
2010,04,22,16,55,11.60
2010,04,22,16,56,11.60
2010,04,22,16,57,11.60
2010,04,22,16,58,11.50
2010,04,22,16,59,11.50
2010,04,22,17,00,11.40
2010,04,22,17,01,11.40
2010,04,22,17,02,11.30
2010,04,22,17,03,11.30
2010,04,22,17,04,11.30
2010,04,22,17,05,11.20
2010,04,22,17,06,11.20
2010,04,22,17,07,11.20
2010,04,22,17,08,11.20
2010,04,22,17,09,11.20
2010,04,22,17,10,11.20
2010,04,22,17,11,11.20
2010,04,22,17,12,11.20
2010,04,22,17,13,11.20
2010,04,22,17,14,11.30
2010,04,22,17,15,11.30
2010,04,22,17,16,11.40
2010,04,22,17,17,11.50
2010,04,22,17,18,11.50
2010,04,22,17,19,11.60
2010,04,22,17,20,11.70
2010,04,22,17,21,11.70
2010,04,22,17,22,11.80
2010,04,22,17,23,11.80
2010,04,22,17,24,11.80
2010,04,22,17,25,11.90
2010,04,22,17,26,11.90
2010,04,22,17,27,11.90
2010,04,22,17,28,11.90
2010,04,22,17,29,11.90
2010,04,22,17,30,11.90
2010,04,22,17,31,11.80
2010,04,22,17,32,11.80
2010,04,22,17,33,11.80
2010,04,22,17,34,11.70
2010,04,22,17,35,11.70
2010,04,22,17,36,11.70
2010,04,22,17,37,11.70
2010,04,22,17,38,11.70
2010,04,22,17,39,11.70
2010,04,22,17,40,11.70
2010,04,22,17,41,11.70
2010,04,22,17,42,11.60
2010,04,22,17,43,11.60
2010,04,22,17,44,11.60
2010,04,22,17,45,11.50
2010,04,22,17,46,11.50